| time (UTC) | temp F | wind direction | speed MPH | gust MPH | rain 1hr in | rain 24hr in | rain mn in | humidity % | barometer mb |
| 20260504233016 | 64 | 160 | 0.0 | 5.0 | 0.00 | 0.00 | 0.00 | 43 | 1005.7 |
| 20260504231517 | 64 | 180 | 1.0 | 4.0 | 0.00 | 0.00 | 0.00 | 40 | 1005.5 |
| 20260504230026 | 65 | 171 | 2.0 | 4.0 | 0.00 | 0.00 | 0.00 | 38 | 1005.2 |
| 20260504224524 | 67 | 290 | 1.0 | 10.0 | 0.00 | 0.00 | 0.00 | 37 | 1005.2 |
| 20260504223013 | 68 | 303 | 3.0 | 11.0 | 0.00 | 0.00 | 0.00 | 35 | 1005.1 |
| 20260504221525 | 68 | 352 | 3.0 | 8.0 | 0.00 | 0.00 | 0.00 | 35 | 1005.0 |
| 20260504220039 | 68 | 300 | 2.0 | 11.0 | 0.00 | 0.00 | 0.00 | 35 | 1004.9 |
| 20260504214507 | 69 | 61 | 3.0 | 10.0 | 0.00 | 0.00 | 0.00 | 34 | 1005.1 |
| 20260504213014 | 68 | 85 | 2.0 | 8.0 | 0.00 | 0.00 | 0.00 | 35 | 1005.0 |
| 20260504211514 | 69 | 57 | 3.0 | 10.0 | 0.00 | 0.00 | 0.00 | 35 | 1005.2 |
| 20260504210020 | 68 | 251 | 3.0 | 10.0 | 0.00 | 0.00 | 0.00 | 39 | 1005.1 |
| 20260504204536 | 67 | 281 | 2.0 | 14.0 | 0.00 | 0.00 | 0.00 | 38 | 1005.3 |
| 20260504203007 | 66 | 340 | 4.0 | 11.0 | 0.00 | 0.00 | 0.00 | 36 | 1005.2 |
| 20260504201514 | 66 | 342 | 6.0 | 10.0 | 0.00 | 0.00 | 0.00 | 38 | 1005.2 |
| 20260504200019 | 66 | 232 | 4.0 | 15.0 | 0.00 | 0.00 | 0.00 | 37 | 1005.3 |
| 20260504194524 | 67 | 281 | 4.0 | 17.0 | 0.00 | 0.00 | 0.00 | 37 | 1005.5 |
| 20260504193027 | 67 | 125 | 5.0 | 13.0 | 0.00 | 0.00 | 0.00 | 38 | 1005.5 |
| 20260504191511 | 65 | 10 | 3.0 | 10.0 | 0.00 | 0.00 | 0.00 | 39 | 1005.6 |
| 20260504190020 | 67 | 338 | 3.0 | 15.0 | 0.00 | 0.00 | 0.00 | 37 | 1005.4 |
| 20260504184520 | 67 | 273 | 5.0 | 12.0 | 0.00 | 0.00 | 0.00 | 36 | 1005.6 |
| 20260504183026 | 66 | 212 | 3.0 | 17.0 | 0.00 | 0.00 | 0.00 | 40 | 1005.7 |
| 20260504181531 | 66 | 211 | 5.0 | 12.0 | 0.00 | 0.00 | 0.00 | 39 | 1005.5 |
| 20260504180014 | 64 | 279 | 4.0 | 11.0 | 0.00 | 0.00 | 0.00 | 46 | 1005.6 |
| 20260504174522 | 62 | 285 | 2.0 | 9.0 | 0.00 | 0.00 | 0.00 | 41 | 1005.8 |
| 20260504173022 | 63 | 266 | 4.0 | 14.0 | 0.00 | 0.00 | 0.00 | 41 | 1005.7 |
| 20260504171524 | 63 | 9 | 3.0 | 12.0 | 0.00 | 0.00 | 0.00 | 41 | 1005.7 |
| 20260504081529 | 0 | 0.0 | 0.0 | 0.00 | 0.00 | 0.00 | 1008.2 | ||
| 20260504050018 | 32 | 269 | 0.0 | 2.0 | 0.00 | 0.00 | 0.00 | 90 | 1008.4 |
| 20260504044532 | 30 | 333 | 0.0 | 0.0 | 0.00 | 0.00 | 0.00 | 90 | 1008.5 |
| 20260504043034 | 30 | 333 | 0.0 | 0.0 | 0.00 | 0.00 | 0.00 | 90 | 1008.5 |
| 20260504041507 | 29 | 333 | 0.0 | 0.0 | 0.00 | 0.00 | 0.00 | 88 | 1008.4 |
| 20260504040021 | 29 | 326 | 0.0 | 0.0 | 0.00 | 0.00 | 0.00 | 87 | 1008.3 |
| 20260504034518 | 29 | 326 | 0.0 | 0.0 | 0.00 | 0.00 | 0.00 | 86 | 1008.3 |
| 20260504033022 | 30 | 298 | 0.0 | 0.0 | 0.00 | 0.00 | 0.00 | 85 | 1008.4 |
| 20260504031525 | 30 | 298 | 0.0 | 0.0 | 0.00 | 0.00 | 0.00 | 85 | 1008.4 |
| 20260504030015 | 30 | 300 | 0.0 | 0.0 | 0.00 | 0.00 | 0.00 | 84 | 1008.2 |
| 20260504024516 | 31 | 300 | 0.0 | 0.0 | 0.00 | 0.00 | 0.00 | 82 | 1008.3 |
| 20260504023024 | 32 | 300 | 0.0 | 0.0 | 0.00 | 0.00 | 0.00 | 81 | 1008.4 |
| 20260504021532 | 32 | 300 | 0.0 | 0.0 | 0.00 | 0.00 | 0.00 | 80 | 1008.6 |
| 20260504020035 | 33 | 300 | 0.0 | 0.0 | 0.00 | 0.00 | 0.00 | 79 | 1008.4 |
| 20260504014517 | 33 | 291 | 0.0 | 0.0 | 0.00 | 0.00 | 0.00 | 78 | 1008.4 |
| 20260504013019 | 34 | 290 | 0.0 | 0.0 | 0.00 | 0.00 | 0.00 | 77 | 1008.3 |
| 20260504011524 | 35 | 290 | 0.0 | 0.0 | 0.00 | 0.00 | 0.00 | 78 | 1008.1 |
| 20260504010004 | 35 | 290 | 0.0 | 0.0 | 0.00 | 0.00 | 0.00 | 77 | 1007.7 |
| 20260504004517 | 36 | 290 | 0.0 | 0.0 | 0.00 | 0.00 | 0.00 | 76 | 1007.6 |
| 20260504003013 | 37 | 290 | 0.0 | 2.0 | 0.00 | 0.00 | 0.00 | 74 | 1007.6 |
| 20260504001505 | 39 | 281 | 1.0 | 3.0 | 0.00 | 0.00 | 0.00 | 71 | 1007.3 |
| 20260504000004 | 42 | 296 | 0.0 | 2.0 | 0.00 | 0.00 | 0.00 | 60 | 1007.2 |
| 20260503234509 | 44 | 255 | 0.0 | 2.0 | 0.00 | 0.00 | 0.00 | 53 | 1007.2 |